Location: *
(49.9853°N, 3.5569°E)
Time: 10:16:34
(UTC+00:00)

Cosmos 1025 Rocket - Pass Details

Date: 22 September 2019
Orbit: 593 x 619 km, 82.5° (Epoch: 14 October)

Event Time Altitude Azimuth Distance (km) Brightness Sun altitude
Rises 18:31:48 0° 344° (NNW) 2,847 6.8 -8.4°
Reaches altitude 10° 18:34:05 10° 338° (NNW) 1,939 6.1 -8.7°
Maximum altitude 18:38:08 43° 267° (W) 848 4.4 -9.4°
Drops below altitude 10° 18:42:09 10° 196° (SSW) 1,925 5.6 -10.0°
Sets 18:44:25 0° 190° (S) 2,824 6.4 -10.3°
